Terminal Aerodrome Forecast
Issued by NWS Cleveland, OH

Home | Current Version | Previous Version | Graphics & Text | Print | Product List | Glossary On
Versions: 1 2 3 4 5 6 7 8 9 10 11 12
863
FTUS41 KCLE 191120
TAFYNG
TAF
KYNG 191120Z 1912/2012 18006KT P6SM SKC WS020/23035KT
     FM191500 23012G18KT P6SM SCT250
     FM192300 25005KT P6SM SCT250=

USA.gov is the U.S. government's official web portal to all federal, state and local government web resources and services.